Weather History for Kankakee, IL

Change the Weather History Date:

Monday, December 23, 2013

  Actual Average Record
Temperature  
Mean Temperature 14 °F -  
Max Temperature 27 °F 30 °F 55 °F (2007)
Min Temperature 2 °F 16 °F -17 °F (1989)
Degree Days  
Heating Degree Days 50    
Moisture  
Dew Point 10 °F    
Average Humidity 80    
Maximum Humidity 89    
Minimum Humidity 68    
Precipitation  
Precipitation 0.00 in - - ()
Sea Level Pressure  
Sea Level Pressure 30.36 in    
Wind  
Wind Speed 15 mph (West)    
Max Wind Speed 20 mph    
Max Gust Speed 26 mph    
Visibility 10 miles    
Events Snow    
Averages and records for this station are not official NWS values.
T = Trace of Precipitation, MM = Missing Value Source: NWS Daily Summary

Daily Weather History Graph

Daily Weather History Graph

Search for Another Location

Airport:

Trip Planner

Search our weather history database for the weather conditions in past years. The results will help you decide how hot, cold, wet, or windy it might be!

Date:

Astronomy

Dec. 23, 2013 Rise Set
Actual Time 7:14 AM CST 4:27 PM CST
Civil Twilight 6:42 AM CST 4:58 PM CST
Nautical Twilight 6:08 AM CST 5:33 PM CST
Astronomical Twilight 5:34 AM CST 6:06 PM CST
Moon 10:39 PM CST (12/23) 10:36 AM CST (12/23)
Length of Visible Light 10h 15m
Length of Day
9h 13m
Waning Gibbous, 68% of the Moon is Illuminated
Dec 23
Waning Gibbous
Dec 25
Last Quarter
Jan 1
New
Jan 7
First Quarter
Jan 15
Full

Hourly Weather History & Observations

Time (CST) Temp. Windchill Dew Point Humidity Pressure Visibility Wind Dir Wind Speed Gust Speed Precip Events Conditions
12:15 AM 27.1 °F 16.4 °F 23.9 °F 88% 30.15 in 10.0 mi West 12.7 mph - N/A   Overcast
12:35 AM 26.6 °F 14.7 °F 23.4 °F 88% 30.15 in 10.0 mi West 15.0 mph - N/A   Overcast
12:55 AM 26.4 °F 14.5 °F 23.0 °F 87% 30.15 in 10.0 mi West 15.0 mph 20.7 mph N/A   Overcast
1:15 AM 25.7 °F 13.5 °F 22.5 °F 88% 30.17 in 10.0 mi West 15.0 mph 21.9 mph N/A   Overcast
1:35 AM 25.0 °F 12.6 °F 21.7 °F 87% 30.17 in 10.0 mi West 15.0 mph 21.9 mph N/A   Overcast
1:55 AM 24.4 °F 11.5 °F 21.0 °F 87% 30.18 in 10.0 mi West 16.1 mph 20.7 mph N/A   Overcast
2:15 AM 23.9 °F 10.3 °F 20.3 °F 86% 30.19 in 10.0 mi West 17.3 mph 24.2 mph N/A   Overcast
2:35 AM 23.7 °F 11.0 °F 20.3 °F 87% 30.20 in 10.0 mi West 15.0 mph 20.7 mph N/A Snow Light Snow
2:55 AM 23.5 °F 11.3 °F 20.1 °F 87% 30.21 in 10.0 mi West 13.8 mph - N/A   Overcast
3:15 AM 23.0 °F 10.1 °F 19.9 °F 88% 30.21 in 10.0 mi West 15.0 mph 19.6 mph N/A   Overcast
3:35 AM 22.6 °F 9.6 °F 19.4 °F 87% 30.22 in 10.0 mi West 15.0 mph 19.6 mph N/A   Overcast
3:55 AM 22.6 °F 9.2 °F 19.4 °F 87% 30.22 in 10.0 mi West 16.1 mph - N/A   Overcast
4:15 AM 22.1 °F 8.9 °F 18.9 °F 87% 30.23 in 10.0 mi West 15.0 mph 19.6 mph N/A   Overcast
4:35 AM 21.9 °F 8.7 °F 18.3 °F 86% 30.24 in 10.0 mi West 15.0 mph - N/A   Overcast
4:55 AM 21.6 °F 7.8 °F 18.1 °F 87% 30.25 in 10.0 mi West 16.1 mph - N/A   Overcast
5:15 AM 21.2 °F 8.3 °F 18.1 °F 88% 30.27 in 10.0 mi West 13.8 mph - N/A   Overcast
5:35 AM 20.8 °F 7.3 °F 17.8 °F 88% 30.27 in 10.0 mi West 15.0 mph 23.0 mph N/A   Overcast
5:55 AM 21.0 °F 7.1 °F 18.0 °F 88% 30.29 in 10.0 mi WSW 16.1 mph - N/A   Overcast
6:15 AM 20.7 °F 6.1 °F 17.6 °F 88% 30.29 in 10.0 mi West 17.3 mph - N/A   Overcast
6:35 AM 20.1 °F 6.9 °F 16.9 °F 87% 30.30 in 10.0 mi WSW 13.8 mph 21.9 mph N/A   Overcast
6:55 AM 19.6 °F 5.7 °F 16.9 °F 89% 30.32 in 10.0 mi West 15.0 mph 19.6 mph N/A   Overcast
7:15 AM 18.5 °F 4.3 °F 15.4 °F 88% 30.32 in 10.0 mi WSW 15.0 mph - N/A   Overcast
7:35 AM 17.8 °F 2.4 °F 14.5 °F 87% 30.33 in 10.0 mi West 17.3 mph - N/A   Overcast
7:55 AM 17.2 °F 2.7 °F 14.0 °F 87% 30.34 in 10.0 mi West 15.0 mph - N/A   Overcast
8:15 AM 16.0 °F 1.7 °F 12.2 °F 85% 30.35 in 10.0 mi WSW 13.8 mph 20.7 mph N/A   Overcast
8:35 AM 16.2 °F 3.2 °F 13.1 °F 88% 30.36 in 10.0 mi WSW 11.5 mph 17.3 mph N/A   Overcast
8:55 AM 16.3 °F 1.0 °F 13.3 °F 88% 30.37 in 10.0 mi WSW 16.1 mph - N/A   Overcast
9:15 AM 15.8 °F 0.9 °F 12.4 °F 86% 30.38 in 5.0 mi West 15.0 mph - N/A Snow Light Snow
9:35 AM 15.3 °F 1.4 °F 11.7 °F 86% 30.38 in 7.0 mi West 12.7 mph 18.4 mph N/A Snow Light Snow
9:55 AM 16.7 °F 1.0 °F 12.2 °F 82% 30.39 in 4.0 mi West 17.3 mph - N/A Snow Light Snow
10:15 AM 16.3 °F 1.6 °F 11.5 °F 81% 30.39 in 4.0 mi West 15.0 mph - N/A Snow Light Snow
10:35 AM 16.9 °F 2.8 °F 11.5 °F 79% 30.39 in 10.0 mi West 13.8 mph 20.7 mph N/A   Mostly Cloudy
10:55 AM 17.6 °F 4.3 °F 12.4 °F 80% 30.39 in 10.0 mi West 12.7 mph 19.6 mph N/A   Scattered Clouds
11:15 AM 18.1 °F 3.4 °F 12.6 °F 79% 30.39 in 10.0 mi West 16.1 mph 20.7 mph N/A   Mostly Cloudy
11:35 AM 16.9 °F 2.3 °F 11.8 °F 81% 30.38 in 10.0 mi West 15.0 mph 18.4 mph N/A   Mostly Cloudy
11:55 AM 17.4 °F 3.5 °F 11.7 °F 78% 30.38 in 10.0 mi WSW 13.8 mph 19.6 mph N/A   Mostly Cloudy
12:15 PM 18.0 °F 3.6 °F 11.5 °F 76% 30.38 in 10.0 mi WSW 15.0 mph 20.7 mph N/A   Scattered Clouds
12:35 PM 17.8 °F 3.4 °F 10.2 °F 72% 30.37 in 10.0 mi West 15.0 mph 26.5 mph N/A   Scattered Clouds
12:55 PM 18.3 °F 3.1 °F 10.8 °F 72% 30.37 in 10.0 mi West 17.3 mph 23.0 mph N/A   Scattered Clouds
1:15 PM 18.5 °F 3.3 °F 10.8 °F 72% 30.38 in 10.0 mi West 17.3 mph - N/A   Mostly Cloudy
1:35 PM 18.3 °F 3.6 °F 10.9 °F 73% 30.38 in 10.0 mi West 16.1 mph - N/A   Mostly Cloudy
1:55 PM 18.0 °F 2.2 °F 10.0 °F 71% 30.38 in 10.0 mi West 18.4 mph 21.9 mph N/A   Mostly Cloudy
2:15 PM 17.4 °F 2.4 °F 8.6 °F 68% 30.38 in 10.0 mi West 16.1 mph 23.0 mph N/A   Scattered Clouds
2:35 PM 16.2 °F 0.3 °F 7.3 °F 68% 30.39 in 10.0 mi West 17.3 mph 21.9 mph N/A   Scattered Clouds
2:55 PM 16.2 °F 0.8 °F 8.2 °F 71% 30.39 in 10.0 mi West 16.1 mph - N/A   Mostly Cloudy
3:15 PM 15.3 °F -0.9 °F 6.6 °F 69% 30.40 in 10.0 mi West 17.3 mph - N/A   Scattered Clouds
3:35 PM 15.1 °F -1.6 °F 6.6 °F 69% 30.40 in 10.0 mi West 18.4 mph 21.9 mph N/A   Clear
3:55 PM 14.2 °F -1.7 °F 6.6 °F 72% 30.41 in 10.0 mi West 16.1 mph 20.7 mph N/A   Clear
4:15 PM 13.1 °F -2.6 °F 6.3 °F 74% 30.42 in 10.0 mi West 15.0 mph - N/A   Scattered Clouds
4:35 PM 12.6 °F -2.0 °F 5.9 °F 75% 30.42 in 10.0 mi West 12.7 mph 18.4 mph N/A   Scattered Clouds
4:55 PM 11.1 °F -5.7 °F 4.6 °F 75% 30.42 in 10.0 mi West 16.1 mph - N/A   Scattered Clouds
5:15 PM 10.0 °F -8.6 °F 3.6 °F 75% 30.43 in 10.0 mi West 19.6 mph 24.2 mph N/A   Clear
5:35 PM 9.3 °F -7.4 °F 3.6 °F 77% 30.44 in 10.0 mi West 15.0 mph 19.6 mph N/A   Clear
5:55 PM 8.6 °F -7.0 °F 3.0 °F 78% 30.45 in 10.0 mi West 12.7 mph - N/A   Clear
6:15 PM 8.4 °F -9.2 °F 2.8 °F 78% 30.46 in 10.0 mi West 16.1 mph 19.6 mph N/A   Clear
6:35 PM 8.1 °F -9.6 °F 2.3 °F 77% 30.46 in 10.0 mi West 16.1 mph 19.6 mph N/A   Clear
6:55 PM 7.7 °F -10.1 °F 2.3 °F 79% 30.47 in 10.0 mi West 16.1 mph - N/A   Clear
7:15 PM 7.3 °F -9.3 °F 1.9 °F 79% 30.47 in 10.0 mi West 13.8 mph 20.7 mph N/A   Scattered Clouds
7:35 PM 7.2 °F -10.8 °F 0.7 °F 75% 30.48 in 10.0 mi West 16.1 mph 24.2 mph N/A   Scattered Clouds
7:55 PM 6.8 °F -11.3 °F 0.9 °F 77% 30.48 in 10.0 mi West 16.1 mph - N/A   Scattered Clouds
8:15 PM 6.4 °F -12.3 °F 0.3 °F 76% 30.48 in 10.0 mi West 17.3 mph 21.9 mph N/A   Mostly Cloudy
8:35 PM 5.5 °F -12.9 °F -0.9 °F 75% 30.48 in 10.0 mi West 16.1 mph 23.0 mph N/A   Scattered Clouds
8:55 PM 5.2 °F -12.7 °F -0.8 °F 76% 30.48 in 10.0 mi West 15.0 mph - N/A   Clear
9:15 PM 5.0 °F -13.6 °F -0.0 °F 80% 30.48 in 4.0 mi WNW 16.1 mph 19.6 mph N/A   Haze
9:35 PM 3.9 °F -15.0 °F -3.3 °F 72% 30.48 in 10.0 mi West 16.1 mph 24.2 mph N/A   Scattered Clouds
9:55 PM 3.2 °F -15.9 °F -3.5 °F 74% 30.48 in 10.0 mi West 16.1 mph 21.9 mph N/A   Clear
10:15 PM 3.2 °F -13.1 °F -3.3 °F 74% 30.48 in 10.0 mi WNW 11.5 mph - N/A   Scattered Clouds
10:35 PM 2.7 °F -14.5 °F -4.0 °F 74% 30.48 in 10.0 mi West 12.7 mph 19.6 mph N/A   Scattered Clouds
10:55 PM 2.3 °F -15.7 °F -4.5 °F 73% 30.48 in 10.0 mi West 13.8 mph 18.4 mph N/A   Scattered Clouds
11:15 PM 2.3 °F -15.7 °F -4.2 °F 74% 30.48 in 10.0 mi West 13.8 mph - N/A   Clear
11:35 PM 2.3 °F -13.4 °F -4.0 °F 75% 30.48 in 10.0 mi West 10.4 mph - N/A   Clear
11:55 PM 2.1 °F -15.2 °F -4.0 °F 76% 30.48 in 10.0 mi West 12.7 mph - N/A   Scattered Clouds